[[{"header":{"parameterUnit":"m.s-1","parameterCategory":2,"la1":30.2991,"la2":30.254,"lo1":-89.0895,"lo2":-89.0444,"dy":0.0017,"dx":0.0017,"nx":28,"ny":28,"refTime":"2024-03-19T03:00:00:Z","depth":"0","parameterNumber":2,"parameterNumberName":"U-component_of_CURRENTS"},"data":[0,0,0,0,0,0,0,0,0,0,0,0,0,0,0,0,0,0,0,0,0,0,0,0,0,0,0,0,0,0,0,0,0,0,0,0,0,0,0,0,0,0,0,0,0,0,0,0,0,0,0,0,0,0,0,0,0,0,0.2842,0.2842,0,0.2844,0.2844,0.2843,0.2884,0.2886,0.2887,0.2889,0.2908,0.2907,0.2906,0,0,0,0,0,0,0,0,0,0,0,0,0,0.2814,0.2814,0.2842,0.2842,0.2843,0.2844,0.2844,0.2843,0.2884,0.2886,0.2888,0.2889,0.2908,0.2907,0.2906,0,0,0,0,0,0,0,0,0,0,0,0,0,0.2818,0.2815,0.2842,0.2866,0.2869,0.2844,0.2844,0.2843,0.2884,0.2886,0.2888,0.289,0.2908,0.2907,0.2906,0.2856,0,0,0.2902,0.2902,0,0,0,0,0,0,0,0,0.2818,0.2819,0.2862,0.2865,0.2867,0.287,0.2841,0.285,0.2883,0.2874,0.2889,0.2891,0.2898,0.2897,0.2887,0.2857,0.2858,0.2902,0.2901,0.2901,0.2901,0,0,0,0,0,0,0,0.2818,0.2819,0.2839,0.2863,0.2866,0.2857,0.286,0.2842,0.2871,0.2875,0.2879,0.2885,0.2899,0.2888,0.2888,0.2858,0.2902,0.2901,0.29,0.29,0.2898,0.2898,0,0,0,0,0,0,0.2826,0.2819,0.2839,0.2839,0.2852,0.2856,0.286,0.2863,0.2871,0.2875,0.2883,0.2887,0.2889,0.2889,0.2889,0.2922,0.2901,0.29,0.2899,0.2897,0.2898,0.2898,0,0,0,0,0,0,0.2826,0.2828,0.2839,0.2832,0.2834,0.2856,0.2859,0.2863,0.2866,0.2878,0.2882,0.2885,0.2891,0.2891,0.2892,0.292,0.2899,0.2898,0.2896,0.2897,0.2898,0.293,0,0,0,0,0,0,0.2825,0.2827,0.2822,0.2833,0.2835,0.2836,0.2857,0.2861,0.2867,0.2872,0.288,0.2883,0.2893,0.2894,0.2891,0.2918,0.2897,0.2895,0.2897,0.2898,0.2928,0.2932,0.2935,0,0,0,0,0,0.2824,0.281,0.2822,0.2824,0.2831,0.2836,0.2836,0.2855,0.2865,0.2865,0.2876,0.2884,0.2901,0.2892,0.2889,0.2917,0.2895,0.2896,0.2898,0.2927,0.2931,0.2935,0,0,0,0,0,0,0.2789,0.2813,0.2827,0.282,0.2835,0.2845,0.2838,0.2852,0.2855,0.2861,0.2873,0.2877,0.2901,0.2891,0.2881,0.2921,0.2906,0.2906,0.2929,0.2933,0.2937,0.2953,0.2896,0,0,0,0,0,0.278,0.278,0.2805,0.2798,0.2805,0.282,0.282,0.2838,0.2847,0.2851,0.2861,0.2875,0.2898,0.2901,0.2914,0.2908,0.2922,0.293,0.2934,0.2937,0.2948,0.2984,0.2992,0.2903,0.2903,0.2903,0,0,0.2763,0.2777,0.2775,0.2791,0.2799,0.2815,0.2825,0.283,0.2853,0.285,0.287,0.2885,0.2901,0.2923,0.2932,0.2919,0.297,0.2939,0.2941,0.2951,0.2986,0.2995,0.3003,0.2904,0.2904,0.2904,0,0,0.2737,0.2743,0.2742,0.2759,0.2781,0.2798,0.2803,0.2822,0.2841,0.2853,0.288,0.2905,0.2911,0.2945,0.296,0.298,0.2994,0.2988,0.3009,0.3044,0.3052,0.3059,0.309,0.3099,0.2982,0.2982,0.2982,0,0.2719,0.2727,0.2739,0.2753,0.2772,0.2796,0.2812,0.283,0.285,0.2871,0.2868,0.2921,0.293,0.2984,0.3004,0.2992,0.301,0.2992,0.305,0.3057,0.3064,0.3094,0.3104,0.2983,0.2983,0.2983,0.2983,0,0.2705,0.2717,0.2716,0.2752,0.2769,0.2782,0.2825,0.2844,0.2866,0.2895,0.2946,0.2958,0.2996,0.3008,0.3011,0.3073,0.3071,0.3057,0.304,0.3075,0.3104,0.3114,0.2986,0.2985,0.2985,0.2984,0,0,0.2668,0.2701,0.2704,0.2725,0.2776,0.2787,0.2833,0.2884,0.2923,0.2946,0.2998,0.304,0.3055,0.3074,0.3087,0.3112,0.3174,0.3105,0.3106,0.3139,0.3254,0.3269,0.3281,0.3171,0.3173,0.3175,0.3257,0,0.2663,0.2681,0.2707,0.2739,0.276,0.2807,0.2848,0.2899,0.2946,0.2997,0.3036,0.3084,0.308,0.3101,0.3132,0.3173,0.3202,0.3154,0.3214,0.3216,0.3227,0.3294,0.3251,0.3322,0.3266,0.3268,0.3269,0,0.2661,0.2674,0.2697,0.2749,0.2761,0.2785,0.2865,0.2905,0.2993,0.3034,0.3095,0.3127,0.3194,0.3168,0.3259,0.3229,0.3249,0.3266,0.3269,0.3281,0.325,0.3278,0.3343,0.3276,0.3285,0.3283,0.3282,0,0.2645,0.2678,0.2693,0.2711,0.2766,0.2789,0.2825,0.2912,0.2965,0.3061,0.3112,0.3187,0.3238,0.3274,0.3328,0.3296,0.3419,0.3373,0.3403,0.3404,0.338,0.3375,0.339,0.3429,0.3429,0.3428,0.3428,0,0.2649,0.2664,0.268,0.2691,0.2713,0.2766,0.2815,0.2876,0.2976,0.3041,0.3124,0.3196,0.3269,0.3346,0.3361,0.3439,0.3451,0.3435,0.3438,0.3389,0.3385,0.3334,0.3286,0.3431,0.3431,0.343,0.343,0,0.2646,0.2655,0.2668,0.2699,0.2706,0.2723,0.2796,0.2843,0.2948,0.304,0.3074,0.3231,0.3344,0.3415,0.3499,0.35,0.3473,0.3564,0.3507,0.3503,0.3445,0.34,0.3285,0.3188,0.3604,0.3605,0.3606,0,0.2646,0.2653,0.2656,0.265,0.266,0.2689,0.2715,0.2815,0.2878,0.3054,0.3099,0.3259,0.3368,0.3532,0.3583,0.3648,0.3517,0.3616,0.3542,0.3466,0.3417,0.3243,0.3155,0.352,0.352,0.352,0.352,0,0.2648,0.2644,0.265,0.2636,0.264,0.2648,0.2697,0.274,0.2864,0.2961,0.3107,0.3212,0.342,0.351,0.3629,0.3648,0.3472,0.3619,0.3554,0.3379,0.3176,0.3075,0.3437,0.3521,0.3521,0.352,0.352,0.352,0.264,0.2639,0.2638,0.2624,0.2623,0.2613,0.2609,0.2679,0.2761,0.2885,0.3033,0.3173,0.3393,0.3581,0.3571,0.3574,0.3481,0.3505,0.3467,0.3303,0.3174,0.3546,0.3621,0.3622,0.3622,0.3623,0.3623,0,0.2615,0.2625,0.2625,0.2596,0.258,0.2586,0.2602,0.2589,0.2643,0.28,0.2919,0.3151,0.3287,0.3418,0.3544,0.3458,0.3257,0.3366,0.3112,0.3038,0.341,0.3375,0.3383,0.3383,0.3383,0.3383,0.3383,0.3383,0.26,0.2592,0.2595,0.2557,0.2542,0.2479,0.2466,0.2448,0.2526,0.2628,0.2765,0.2913,0.3228,0.3443,0.3436,0.3352,0.3072,0.2969,0.2883,0.3179,0.3188,0.3196,0.3152,0.3113,0.3112,0.2415,0.241,0.2407]},{"header":{"parameterUnit":"m.s-1","parameterCategory":2,"la1":30.2991,"la2":30.254,"lo1":-89.0895,"lo2":-89.0444,"dy":0.0017,"dx":0.0017,"nx":28,"ny":28,"refTime":"2024-03-19T03:00:00:Z","depth":"0","parameterNumber":3,"parameterNumberName":"V-component_of_CURRENTS"},"data":[0,0,0,0,0,0,0,0,0,0,0,0,0,0,0,0,0,0,0,0,0,0,0,0,0,0,0,0,0,0,0,0,0,0,0,0,0,0,0,0,0,0,0,0,0,0,0,0,0,0,0,0,0,0,0,0,0,0,0.0002,0.0002,0,-0.0066,-0.0067,-0.0067,-0.0128,-0.0128,-0.0129,-0.0129,-0.026,-0.0263,-0.0266,0,0,0,0,0,0,0,0,0,0,0,0,0,0.0018,0.0018,0.0002,0.0002,0.0001,-0.0065,-0.0067,-0.0068,-0.0128,-0.0128,-0.0129,-0.0129,-0.0259,-0.0262,-0.0266,0,0,0,0,0,0,0,0,0,0,0,0,0,-0.0015,0.0018,0.0002,-0.0036,-0.0039,-0.0065,-0.0067,-0.0068,-0.0127,-0.0128,-0.0129,-0.013,-0.0258,-0.0262,-0.0266,-0.0278,0,0,-0.028,-0.0282,0,0,0,0,0,0,0,0,-0.0013,-0.0016,-0.0029,-0.0033,-0.0037,-0.0087,-0.0109,-0.0141,-0.0127,-0.0096,-0.0129,-0.013,-0.0206,-0.0215,-0.0228,-0.0284,-0.029,-0.028,-0.0283,-0.0285,-0.0286,0,0,0,0,0,0,0,-0.0011,-0.0014,-0.0027,-0.003,-0.0035,-0.0071,-0.0076,-0.0115,-0.0148,-0.0099,-0.0103,-0.0107,-0.0209,-0.0223,-0.0231,-0.0292,-0.028,-0.0284,-0.0287,-0.0289,-0.036,-0.0359,0,0,0,0,0,0,0.0006,-0.0011,-0.0024,-0.0028,-0.0025,-0.007,-0.0076,-0.0072,-0.0147,-0.0158,-0.0106,-0.011,-0.0215,-0.0226,-0.0236,-0.0249,-0.0285,-0.0289,-0.0292,-0.0361,-0.036,-0.0359,0,0,0,0,0,0,0.0007,0.0006,-0.0022,-0.002,-0.0026,-0.0068,-0.0064,-0.0073,-0.0088,-0.0151,-0.0164,-0.0113,-0.0216,-0.023,-0.027,-0.0255,-0.0291,-0.0295,-0.0362,-0.0361,-0.036,-0.0279,0,0,0,0,0,0,0.0007,0.0007,0.0014,-0.0019,-0.0025,-0.003,-0.0064,-0.0074,-0.0089,-0.0094,-0.0161,-0.0174,-0.0218,-0.0263,-0.0274,-0.0262,-0.0299,-0.0363,-0.0361,-0.036,-0.0283,-0.0276,-0.0269,0,0,0,0,0,0.0008,0.0028,0.0015,0.0013,-0.0013,-0.003,-0.0036,-0.0071,-0.0088,-0.0089,-0.0136,-0.0172,-0.0261,-0.0266,-0.028,-0.0268,-0.0364,-0.0362,-0.036,-0.0286,-0.0277,-0.0269,0,0,0,0,0,0,0.004,0.0023,0.0008,0.0021,-0.0001,-0.0039,-0.0039,-0.0064,-0.0101,-0.0104,-0.017,-0.0186,-0.0213,-0.025,-0.0254,-0.0283,-0.0315,-0.0316,-0.0254,-0.0246,-0.0239,-0.0218,-0.0302,0,0,0,0,0,0.0052,0.006,0.0033,0.0043,0.0037,-0.0001,-0.0012,-0.0032,-0.0067,-0.0084,-0.0132,-0.0177,-0.0214,-0.0238,-0.0276,-0.0297,-0.033,-0.0296,-0.0289,-0.0283,-0.0273,-0.0314,-0.031,-0.0353,-0.0353,-0.0353,0,0,0.0067,0.0058,0.0062,0.0049,0.0031,0.0034,-0.0009,-0.0014,-0.0016,-0.0092,-0.011,-0.0157,-0.0214,-0.0236,-0.025,-0.0267,-0.0285,-0.0281,-0.0275,-0.0269,-0.0312,-0.0308,-0.0304,-0.0352,-0.0352,-0.0352,0,0,0.0105,0.0095,0.0115,0.0103,0.0086,0.0065,0.0067,0.0035,0.0015,-0.0009,-0.0059,-0.0099,-0.0155,-0.0194,-0.0221,-0.02,-0.0247,-0.0205,-0.0157,-0.0196,-0.0193,-0.019,-0.0215,-0.0215,-0.0202,-0.0202,-0.0202,0,0.0121,0.0145,0.0116,0.0132,0.0132,0.0085,0.0107,0.0081,0.0037,0.0027,-0.0002,-0.008,-0.0136,-0.0162,-0.0155,-0.0185,-0.0206,-0.0184,-0.0187,-0.0185,-0.0184,-0.021,-0.0212,-0.0198,-0.0198,-0.0199,-0.0199,0,0.0171,0.0189,0.0202,0.0206,0.0201,0.0213,0.0181,0.0169,0.0138,0.0109,0.0076,0.0,-0.0045,-0.0067,-0.011,-0.0122,-0.0138,-0.0172,-0.0206,-0.0175,-0.0204,-0.0207,-0.0192,-0.0194,-0.0195,-0.0196,0,0,0.0207,0.0234,0.0237,0.0259,0.0245,0.0251,0.0251,0.0239,0.0245,0.0187,0.0188,0.0108,0.0068,0.0035,-0.0023,-0.0062,-0.0081,-0.0105,-0.0109,-0.0125,-0.0151,-0.0155,-0.016,-0.0113,-0.0113,-0.0114,-0.017,0,0.0253,0.031,0.0304,0.0353,0.0381,0.0347,0.0353,0.0334,0.0302,0.0288,0.0209,0.0181,0.0107,0.0088,0.0039,-0.0051,-0.0087,-0.0062,-0.0182,-0.0185,-0.0191,-0.0163,-0.0135,-0.0182,-0.0173,-0.0174,-0.0174,0,0.0299,0.0335,0.0397,0.0439,0.0448,0.0463,0.0471,0.0472,0.0433,0.0411,0.0366,0.0302,0.0236,0.0168,0.0035,0.0058,-0.0033,-0.0107,-0.0112,-0.0146,-0.0195,-0.0215,-0.0188,-0.038,-0.018,-0.018,-0.0179,0,0.034,0.0399,0.0456,0.0468,0.0501,0.0519,0.0528,0.0508,0.053,0.0489,0.0499,0.04,0.0364,0.0233,0.0074,0.0056,-0.0065,-0.0117,-0.0205,-0.0206,-0.0221,-0.0223,-0.0392,-0.0204,-0.0204,-0.0204,-0.0203,0,0.0388,0.0434,0.0482,0.0512,0.0582,0.0578,0.0638,0.0624,0.0635,0.0685,0.0569,0.0584,0.038,0.0281,0.0121,-0.0039,-0.0034,-0.0185,-0.0219,-0.0191,-0.0189,-0.0389,-0.0487,-0.0206,-0.0205,-0.0205,-0.0204,0,0.0419,0.045,0.0524,0.0581,0.0605,0.065,0.0725,0.0772,0.076,0.0822,0.0818,0.0728,0.06,0.0394,0.0187,0.0038,-0.0229,-0.019,-0.0133,-0.016,-0.0426,-0.0518,-0.0705,-0.0781,-0.0297,-0.0298,-0.0298,0,0.0442,0.0484,0.0576,0.0633,0.0662,0.0738,0.08,0.0829,0.0897,0.0923,0.0969,0.0862,0.0824,0.0515,0.0217,-0.0055,-0.0233,-0.0208,-0.0251,-0.0428,-0.0557,-0.0631,-0.0687,-0.0238,-0.0238,-0.0238,-0.0238,0,0.0491,0.052,0.0583,0.0701,0.0781,0.0887,0.0982,0.1062,0.1115,0.1168,0.1228,0.1197,0.0903,0.0637,0.0252,0.0055,-0.033,-0.0214,-0.0421,-0.0536,-0.0605,-0.0697,-0.0211,-0.0236,-0.0237,-0.0237,-0.0237,-0.0237,0.0527,0.0582,0.0673,0.0783,0.0885,0.1029,0.1135,0.125,0.1381,0.1497,0.1449,0.1459,0.1048,0.0523,0.021,-0.0333,-0.0345,-0.0492,-0.059,-0.065,-0.0723,-0.0222,-0.0275,-0.0276,-0.0276,-0.0276,-0.0276,0,0.0587,0.0654,0.0758,0.0902,0.1029,0.1072,0.1259,0.1379,0.1554,0.167,0.1731,0.1567,0.1056,0.0523,-0.0219,-0.0628,-0.0779,-0.0854,-0.0969,-0.101,-0.0585,-0.0583,-0.0677,-0.0677,-0.0676,-0.0676,-0.0676,-0.0676,0.0625,0.0733,0.079,0.1005,0.111,0.1297,0.1416,0.1584,0.1717,0.1878,0.1923,0.1918,0.1518,0.0144,-0.0806,-0.1027,-0.1302,-0.1363,-0.152,-0.1255,-0.123,-0.1205,-0.1229,-0.1456,-0.1457,-0.1889,-0.1893,-0.1897]}],[{"header":{"parameterUnit":"m.s-1","parameterCategory":2,"la1":30.2991,"la2":30.254,"lo1":-89.0895,"lo2":-89.0444,"dy":0.0017,"dx":0.0017,"nx":28,"ny":28,"refTime":"2024-03-19T03:00:00:Z","depth":"2","parameterNumber":2,"parameterNumberName":"U-component_of_CURRENTS"},"data":[0,0,0,0,0,0,0,0,0,0,0,0,0,0,0,0,0,0,0,0,0,0,0,0,0,0,0,0,0,0,0,0,0,0,0,0,0,0,0,0,0,0,0,0,0,0,0,0,0,0,0,0,0,0,0,0,0,0,0.2279,0.2279,0,0.2321,0.2321,0.2322,0.2368,0.2369,0.237,0.2371,0.2414,0.2414,0.2414,0,0,0,0,0,0,0,0,0,0,0,0,0,0.2222,0.2223,0.2279,0.2279,0.228,0.2321,0.2321,0.2322,0.2368,0.2369,0.237,0.2371,0.2413,0.2414,0.2414,0,0,0,0,0,0,0,0,0,0,0,0,0,0.2252,0.2223,0.2279,0.231,0.2313,0.2321,0.2321,0.2322,0.2368,0.2369,0.2371,0.2372,0.2413,0.2414,0.2414,0.2392,0,0,0.2416,0.2416,0,0,0,0,0,0,0,0,0.225,0.2254,0.2304,0.2307,0.2311,0.2342,0.2317,0.2346,0.2368,0.2345,0.2371,0.2372,0.239,0.2392,0.2395,0.2394,0.2396,0.2416,0.2416,0.2417,0.2417,0,0,0,0,0,0,0,0.2248,0.2252,0.2294,0.2305,0.2309,0.2316,0.2321,0.2323,0.2359,0.2347,0.2351,0.2358,0.2392,0.2394,0.2397,0.2397,0.2416,0.2416,0.2417,0.2417,0.2465,0.2466,0,0,0,0,0,0,0.2246,0.225,0.2292,0.2295,0.2285,0.2316,0.2322,0.233,0.2359,0.2365,0.2357,0.236,0.2393,0.2396,0.2398,0.2449,0.2417,0.2417,0.2417,0.2464,0.2465,0.2466,0,0,0,0,0,0,0.2245,0.2249,0.2291,0.2275,0.2281,0.2316,0.2324,0.233,0.2349,0.2367,0.2373,0.2373,0.2394,0.2397,0.2417,0.2448,0.2417,0.2418,0.2463,0.2464,0.2466,0.2503,0,0,0,0,0,0,0.2243,0.2248,0.2254,0.2275,0.2282,0.2312,0.2323,0.233,0.2352,0.2357,0.2381,0.2386,0.2395,0.2416,0.2418,0.2449,0.2418,0.2462,0.2463,0.2465,0.25,0.2505,0.251,0,0,0,0,0,0.2241,0.2241,0.2254,0.2259,0.2288,0.2312,0.2317,0.2344,0.2351,0.2365,0.2381,0.2386,0.243,0.2417,0.2419,0.245,0.2461,0.2463,0.2465,0.2498,0.2504,0.2509,0,0,0,0,0,0,0.2212,0.2246,0.2261,0.227,0.2298,0.2321,0.2332,0.2347,0.2368,0.2374,0.2387,0.2393,0.2431,0.2426,0.2412,0.247,0.245,0.2452,0.2475,0.248,0.2485,0.2494,0.2419,0,0,0,0,0,0.2209,0.2225,0.2256,0.2266,0.228,0.2306,0.2319,0.2339,0.236,0.2371,0.2388,0.2408,0.2436,0.2446,0.2467,0.2481,0.2492,0.2506,0.2511,0.2515,0.2524,0.2559,0.2568,0.2473,0.2473,0.2473,0,0,0.2199,0.2221,0.2229,0.2262,0.2283,0.2308,0.2317,0.2342,0.237,0.237,0.2407,0.2426,0.2445,0.248,0.2495,0.248,0.2548,0.2517,0.2521,0.2528,0.2562,0.2572,0.258,0.2475,0.2474,0.2474,0,0,0.219,0.221,0.2224,0.2252,0.2291,0.231,0.2321,0.2354,0.2379,0.2407,0.2429,0.2461,0.2485,0.2516,0.2531,0.2566,0.2576,0.2577,0.2602,0.2637,0.2645,0.2652,0.268,0.269,0.2573,0.2573,0.2573,0,0.218,0.2203,0.2231,0.2257,0.2282,0.2314,0.2339,0.2366,0.2403,0.2428,0.2427,0.2493,0.2507,0.2563,0.2583,0.2579,0.2597,0.2579,0.2643,0.2651,0.2657,0.2685,0.2695,0.2575,0.2575,0.2575,0.2574,0,0.2188,0.2212,0.2222,0.2271,0.2301,0.2326,0.2373,0.2405,0.2432,0.2462,0.2522,0.2543,0.2585,0.2599,0.2602,0.2666,0.2663,0.265,0.2629,0.2669,0.2695,0.2705,0.2578,0.2577,0.2577,0.2576,0,0,0.2154,0.2215,0.2221,0.2248,0.2312,0.2335,0.239,0.2446,0.2488,0.2526,0.258,0.2629,0.2647,0.2666,0.2681,0.2708,0.2772,0.2702,0.2703,0.273,0.2852,0.284,0.285,0.2772,0.2774,0.2775,0.2851,0,0.2155,0.2198,0.2232,0.2279,0.2309,0.2363,0.241,0.2469,0.2521,0.258,0.2623,0.2678,0.2672,0.2699,0.273,0.2771,0.28,0.2753,0.2808,0.281,0.2796,0.2861,0.2661,0.2711,0.286,0.2862,0.2863,0,0.2156,0.2188,0.2228,0.2295,0.2312,0.2344,0.2432,0.2479,0.2575,0.2619,0.2684,0.2723,0.2793,0.2769,0.2856,0.2829,0.2847,0.2863,0.2866,0.2851,0.2818,0.2695,0.2724,0.2879,0.2878,0.2877,0.2876,0,0.2126,0.2186,0.2215,0.224,0.2317,0.2349,0.2395,0.249,0.255,0.2651,0.271,0.2783,0.284,0.2875,0.2926,0.2897,0.3012,0.297,0.2974,0.2972,0.2811,0.2793,0.3023,0.3023,0.3023,0.3022,0.3022,0,0.2118,0.2144,0.2201,0.222,0.226,0.2329,0.2389,0.2454,0.2566,0.2635,0.2725,0.2799,0.2872,0.2947,0.296,0.3017,0.3042,0.3001,0.3001,0.2819,0.2801,0.2947,0.2937,0.3025,0.3025,0.3024,0.3024,0,0.2085,0.2123,0.2157,0.2225,0.2246,0.2276,0.2381,0.2435,0.2548,0.2647,0.2688,0.2841,0.2942,0.301,0.3085,0.3072,0.3111,0.3116,0.2903,0.2877,0.3035,0.3026,0.3125,0.3125,0.3126,0.3126,0.3126,0,0.2074,0.2085,0.214,0.2158,0.2187,0.2244,0.2288,0.2407,0.2477,0.2661,0.2708,0.2864,0.2951,0.3087,0.3104,0.3146,0.3157,0.2963,0.287,0.306,0.305,0.3041,0.3032,0.2665,0.2661,0.2659,0.2656,0,0.205,0.2064,0.209,0.212,0.2156,0.2195,0.2272,0.2322,0.2461,0.2565,0.2703,0.2794,0.2953,0.2935,0.3017,0.2997,0.2941,0.2908,0.317,0.2681,0.2636,0.2623,0.2627,0.2631,0.2633,0.2635,0.2636,0.2637,0.2028,0.2028,0.2057,0.208,0.2115,0.2138,0.2146,0.2244,0.2335,0.2455,0.2593,0.267,0.2748,0.2794,0.2734,0.2697,0.288,0.274,0.2744,0.2753,0.2697,0.2656,0.2644,0.2646,0.2648,0.265,0.2652,0,0.1991,0.2002,0.202,0.2033,0.2029,0.208,0.2128,0.2124,0.2182,0.2328,0.2428,0.2315,0.2357,0.242,0.235,0.2373,0.2295,0.2259,0.2134,0.2165,0.2192,0.21,0.1893,0.1889,0.1886,0.1883,0,0,0.1972,0.1964,0.1966,0.194,0.1952,0.192,0.1922,0.1939,0.2015,0.2044,0.2088,0.2291,0.2404,0.2123,0.2106,0.1988,0.2045,0.1914,0.2541,0.2429,0.2451,0.251,0.2412,0,0,0,0,0]},{"header":{"parameterUnit":"m.s-1","parameterCategory":2,"la1":30.2991,"la2":30.254,"lo1":-89.0895,"lo2":-89.0444,"dy":0.0017,"dx":0.0017,"nx":28,"ny":28,"refTime":"2024-03-19T03:00:00:Z","depth":"2","parameterNumber":3,"parameterNumberName":"V-component_of_CURRENTS"},"data":[0,0,0,0,0,0,0,0,0,0,0,0,0,0,0,0,0,0,0,0,0,0,0,0,0,0,0,0,0,0,0,0,0,0,0,0,0,0,0,0,0,0,0,0,0,0,0,0,0,0,0,0,0,0,0,0,0,0,0.0041,0.0041,0,-0.0033,-0.0034,-0.0035,-0.0092,-0.0092,-0.0092,-0.0093,-0.022,-0.0223,-0.0226,0,0,0,0,0,0,0,0,0,0,0,0,0,0.0073,0.0073,0.0041,0.0041,0.004,-0.0033,-0.0034,-0.0035,-0.0092,-0.0092,-0.0093,-0.0093,-0.0219,-0.0222,-0.0226,0,0,0,0,0,0,0,0,0,0,0,0,0,0.0034,0.0073,0.0042,0.0005,0.0001,-0.0033,-0.0034,-0.0036,-0.0092,-0.0092,-0.0093,-0.0093,-0.0217,-0.0222,-0.0226,-0.0244,0,0,-0.024,-0.0242,0,0,0,0,0,0,0,0,0.0036,0.0032,0.0011,0.0007,0.0003,-0.0052,-0.0069,-0.0107,-0.0092,-0.0059,-0.0093,-0.0093,-0.0167,-0.0175,-0.019,-0.025,-0.0256,-0.0241,-0.0244,-0.0245,-0.0247,0,0,0,0,0,0,0,0.0039,0.0035,0.001,0.001,0.0005,-0.0029,-0.0035,-0.0077,-0.0111,-0.0062,-0.0065,-0.007,-0.017,-0.0186,-0.0194,-0.0258,-0.0241,-0.0245,-0.0248,-0.0249,-0.0328,-0.0327,0,0,0,0,0,0,0.0056,0.0038,0.0012,0.0008,0.0021,-0.0029,-0.0036,-0.0036,-0.011,-0.0121,-0.007,-0.0073,-0.0178,-0.0188,-0.0199,-0.0213,-0.0245,-0.025,-0.0252,-0.0328,-0.0328,-0.0327,0,0,0,0,0,0,0.0057,0.0055,0.0015,0.0022,0.0015,-0.0028,-0.0028,-0.0037,-0.0055,-0.0115,-0.0128,-0.0079,-0.0179,-0.0192,-0.0234,-0.0219,-0.0252,-0.0256,-0.0329,-0.0328,-0.0327,-0.025,0,0,0,0,0,0,0.0058,0.0056,0.006,0.0024,0.0015,0.0001,-0.0028,-0.0038,-0.0056,-0.006,-0.0127,-0.0139,-0.018,-0.0227,-0.0239,-0.0226,-0.026,-0.033,-0.0329,-0.0327,-0.0254,-0.0247,-0.0241,0,0,0,0,0,0.006,0.0073,0.0061,0.0058,0.0024,0.0001,-0.0006,-0.0041,-0.0055,-0.006,-0.0105,-0.0137,-0.0227,-0.023,-0.0244,-0.0233,-0.0331,-0.0329,-0.0328,-0.0257,-0.0248,-0.0241,0,0,0,0,0,0,0.0087,0.0067,0.0054,0.0059,0.0035,-0.0007,-0.0011,-0.0036,-0.0074,-0.0077,-0.0138,-0.0154,-0.0181,-0.0218,-0.022,-0.025,-0.028,-0.0281,-0.0221,-0.0214,-0.0208,-0.0189,-0.0263,0,0,0,0,0,0.0098,0.0102,0.0073,0.0076,0.0069,0.003,0.0016,-0.0005,-0.0042,-0.006,-0.0105,-0.0149,-0.0185,-0.0208,-0.0246,-0.027,-0.0303,-0.0268,-0.0261,-0.0256,-0.0249,-0.029,-0.0287,-0.0322,-0.0322,-0.0322,0,0,0.0109,0.0099,0.01,0.0082,0.0061,0.0061,0.002,0.0008,0.0005,-0.0067,-0.0087,-0.0131,-0.0186,-0.0208,-0.0223,-0.0239,-0.0261,-0.0254,-0.0248,-0.0245,-0.0289,-0.0285,-0.0282,-0.0321,-0.0321,-0.0321,0,0,0.0139,0.0127,0.0142,0.0128,0.0108,0.0086,0.0087,0.005,0.0031,0.0004,-0.0041,-0.008,-0.0136,-0.0172,-0.0197,-0.018,-0.0226,-0.0184,-0.014,-0.018,-0.0178,-0.0176,-0.0204,-0.0205,-0.0181,-0.0181,-0.0181,0,0.0152,0.0169,0.0141,0.0152,0.0151,0.0104,0.0121,0.0094,0.0047,0.0037,0.001,-0.0066,-0.0118,-0.0144,-0.0138,-0.0166,-0.019,-0.0165,-0.0172,-0.0171,-0.0171,-0.02,-0.0202,-0.0177,-0.0178,-0.0178,-0.0179,0,0.0191,0.0206,0.0214,0.0216,0.0209,0.0216,0.0184,0.017,0.0141,0.0112,0.0078,0.0006,-0.0038,-0.0057,-0.0097,-0.011,-0.0128,-0.0158,-0.0189,-0.0162,-0.0195,-0.0199,-0.0172,-0.0173,-0.0174,-0.0175,0,0,0.0217,0.024,0.0242,0.0264,0.0248,0.025,0.0248,0.0234,0.0238,0.0181,0.0178,0.0105,0.0065,0.0034,-0.0019,-0.0057,-0.008,-0.0098,-0.0102,-0.0121,-0.0155,-0.0167,-0.0173,-0.0109,-0.011,-0.011,-0.0175,0,0.0256,0.0305,0.0299,0.0343,0.0368,0.0336,0.0341,0.032,0.0288,0.027,0.0195,0.0168,0.0101,0.0083,0.0034,-0.0052,-0.0088,-0.0059,-0.0182,-0.0185,-0.0197,-0.0177,-0.0148,-0.0204,-0.0179,-0.018,-0.0181,0,0.0294,0.0326,0.0382,0.0422,0.0429,0.0441,0.0448,0.0445,0.0404,0.038,0.0334,0.0275,0.021,0.015,0.0018,0.0043,-0.0044,-0.0115,-0.012,-0.0161,-0.0205,-0.023,-0.0213,-0.0188,-0.0188,-0.0187,-0.0187,0,0.0332,0.0383,0.0435,0.0446,0.0477,0.0492,0.0499,0.0477,0.0495,0.0449,0.0455,0.0358,0.0319,0.0196,0.0046,0.0034,-0.0097,-0.0137,-0.0228,-0.023,-0.0245,-0.0247,-0.0223,-0.0223,-0.0223,-0.0223,-0.0223,0,0.0375,0.0416,0.0459,0.0488,0.055,0.0545,0.0597,0.0581,0.0584,0.0619,0.0517,0.0521,0.0329,0.023,0.0083,-0.0078,-0.0072,-0.0213,-0.0247,-0.0216,-0.0214,-0.0237,-0.0238,-0.0226,-0.0225,-0.0225,-0.0224,0,0.0404,0.0432,0.0499,0.055,0.0572,0.061,0.0675,0.0714,0.0699,0.074,0.0736,0.0644,0.051,0.032,0.0118,-0.0019,-0.0181,-0.0239,-0.0183,-0.0208,-0.0296,-0.0292,-0.0348,-0.0349,-0.0349,-0.035,-0.0351,0,0.0425,0.0464,0.0546,0.0594,0.062,0.0686,0.074,0.0763,0.0818,0.0824,0.0858,0.0745,0.0686,0.0385,0.0113,-0.0142,-0.0177,-0.0275,-0.0302,-0.0281,-0.0309,-0.0304,-0.0299,-0.0291,-0.0291,-0.0291,-0.0291,0,0.0466,0.0492,0.0548,0.065,0.072,0.0813,0.0894,0.0962,0.0997,0.1034,0.1061,0.1013,0.0723,0.046,0.0105,-0.0064,-0.0236,-0.0283,-0.028,-0.026,-0.0232,-0.0258,-0.0254,-0.0291,-0.0291,-0.0291,-0.0291,-0.0291,0.0493,0.0539,0.0617,0.0713,0.0804,0.0927,0.1014,0.1108,0.1209,0.1277,0.1223,0.1165,0.0848,0.04,0.0081,-0.0247,-0.0236,-0.0341,-0.0339,-0.0338,-0.0316,-0.0291,-0.0356,-0.0356,-0.0356,-0.0357,-0.0357,0,0.0534,0.0592,0.0681,0.0802,0.091,0.0956,0.1114,0.1204,0.1333,0.1391,0.141,0.1134,0.0826,0.0469,-0.0023,-0.0318,-0.0339,-0.0397,-0.0364,-0.0361,-0.0359,-0.0337,-0.0384,-0.0385,-0.0386,-0.0387,0,0,0.0558,0.0647,0.0697,0.0873,0.0965,0.1123,0.1222,0.1346,0.143,0.1493,0.1473,0.1396,0.0951,0.0596,0.0181,-0.0104,-0.0156,-0.015,-0.0094,-0.0002,0.0003,-0.0292,-0.0251,0,0,0,0,0]}],[{"header":{"parameterUnit":"m.s-1","parameterCategory":2,"la1":30.2991,"la2":30.254,"lo1":-89.0895,"lo2":-89.0444,"dy":0.0017,"dx":0.0017,"nx":28,"ny":28,"refTime":"2024-03-19T03:00:00:Z","depth":"4","parameterNumber":2,"parameterNumberName":"U-component_of_CURRENTS"},"data":[0,0,0,0,0,0,0,0,0,0,0,0,0,0,0,0,0,0,0,0,0,0,0,0,0,0,0,0,0,0,0,0,0,0,0,0,0,0,0,0,0,0,0,0,0,0,0,0,0,0,0,0,0,0,0,0,0,0,0.1406,0.1408,0,0.1506,0.1506,0.1507,0.1573,0.1573,0.1574,0.1575,0.1671,0.1673,0.1675,0,0,0,0,0,0,0,0,0,0,0,0,0,0.1269,0.1271,0.1406,0.1408,0.1409,0.1505,0.1506,0.1508,0.1573,0.1573,0.1574,0.1575,0.167,0.1672,0.1675,0,0,0,0,0,0,0,0,0,0,0,0,0,0.1341,0.1271,0.1406,0.1455,0.1461,0.1505,0.1507,0.1508,0.1572,0.1573,0.1574,0.1575,0.1669,0.1672,0.1675,0.1672,0,0,0.1684,0.1685,0,0,0,0,0,0,0,0,0.1337,0.1346,0.1447,0.1452,0.1458,0.153,0.1494,0.1564,0.1572,0.1527,0.1575,0.1576,0.1625,0.1631,0.1644,0.1677,0.1681,0.1684,0.1686,0.1687,0.1688,0,0,0,0,0,0,0,0.1332,0.1342,0.1443,0.1448,0.1455,0.1471,0.1482,0.1507,0.1566,0.1531,0.1537,0.1552,0.1628,0.1641,0.1646,0.1682,0.1684,0.1687,0.1688,0.1689,0.1813,0.1814,0,0,0,0,0,0,0.1325,0.1338,0.144,0.1446,0.1402,0.1473,0.1486,0.1504,0.1567,0.1578,0.1551,0.1555,0.1635,0.1643,0.165,0.1742,0.1687,0.169,0.1691,0.1811,0.1813,0.1815,0,0,0,0,0,0,0.1322,0.1333,0.1436,0.1396,0.1411,0.1475,0.1495,0.1505,0.1554,0.1582,0.1593,0.1593,0.1636,0.1646,0.1701,0.1743,0.1691,0.1694,0.1809,0.1812,0.1814,0.1868,0,0,0,0,0,0,0.1317,0.1331,0.1357,0.1396,0.1413,0.1485,0.1494,0.1507,0.1561,0.1568,0.1621,0.1629,0.1638,0.1696,0.1703,0.1746,0.1696,0.1807,0.181,0.1813,0.1864,0.1871,0.1878,0,0,0,0,0,0.1312,0.1341,0.1358,0.1371,0.1441,0.1487,0.1497,0.1543,0.1563,0.159,0.1625,0.163,0.172,0.17,0.1708,0.1752,0.1806,0.181,0.1813,0.1861,0.187,0.1878,0,0,0,0,0,0,0.1298,0.1351,0.1371,0.1416,0.1459,0.1499,0.1537,0.1561,0.1611,0.1627,0.1647,0.1658,0.1724,0.1727,0.1704,0.1796,0.1765,0.177,0.1798,0.1807,0.1814,0.1812,0.1698,0,0,0,0,0,0.1305,0.1344,0.1388,0.143,0.1454,0.15,0.1531,0.1561,0.1602,0.1627,0.1663,0.1701,0.1738,0.1764,0.1795,0.1841,0.1845,0.1876,0.1883,0.1889,0.1893,0.193,0.1941,0.1826,0.1826,0.1826,0,0,0.1311,0.1348,0.137,0.143,0.147,0.1507,0.1522,0.158,0.1618,0.1628,0.1701,0.1731,0.1757,0.1814,0.1843,0.1826,0.1925,0.1893,0.1898,0.1899,0.1935,0.1946,0.1956,0.1829,0.1828,0.1828,0,0,0.133,0.1377,0.141,0.1448,0.1513,0.154,0.1562,0.162,0.166,0.172,0.1742,0.1794,0.185,0.1878,0.1896,0.1958,0.1963,0.1978,0.2013,0.205,0.2059,0.2067,0.209,0.21,0.1979,0.1979,0.1979,0,0.1336,0.1382,0.1427,0.1467,0.1505,0.1556,0.1594,0.1637,0.1708,0.1743,0.1753,0.1853,0.1878,0.1943,0.197,0.1976,0.1993,0.1978,0.2058,0.2067,0.2075,0.2096,0.2106,0.1982,0.1982,0.1982,0.1981,0,0.1367,0.1416,0.1443,0.1507,0.1552,0.1599,0.1656,0.1713,0.1762,0.1801,0.1889,0.1924,0.1983,0.2004,0.2009,0.2084,0.2078,0.2064,0.2035,0.2089,0.2108,0.2118,0.1986,0.1985,0.1985,0.1984,0,0,0.1343,0.1443,0.1455,0.1492,0.1579,0.1615,0.169,0.1763,0.1819,0.1888,0.1958,0.2027,0.2057,0.2079,0.2101,0.2133,0.2206,0.213,0.213,0.2149,0.2288,0.216,0.2158,0.2213,0.2215,0.2216,0.228,0,0.1354,0.1428,0.1477,0.1549,0.1592,0.1663,0.1725,0.1802,0.1871,0.1952,0.2008,0.2083,0.2083,0.2126,0.2162,0.2203,0.2234,0.2189,0.2236,0.2237,0.2113,0.2166,0.2223,0.2287,0.229,0.2291,0.2292,0,0.1357,0.1412,0.1482,0.1578,0.1603,0.1654,0.1767,0.183,0.1945,0.2003,0.2086,0.2136,0.222,0.2202,0.2291,0.2269,0.2287,0.2301,0.2304,0.217,0.2126,0.2221,0.231,0.2309,0.2307,0.2306,0.2305,0,0.1309,0.141,0.1467,0.1502,0.1615,0.1669,0.1737,0.1852,0.1923,0.2049,0.2118,0.2204,0.2274,0.2312,0.236,0.234,0.2441,0.2408,0.2305,0.2296,0.2368,0.2358,0.246,0.246,0.246,0.246,0.246,0,0.1285,0.1332,0.1456,0.1487,0.1563,0.1655,0.1748,0.1829,0.1961,0.2038,0.2148,0.2217,0.231,0.2379,0.2392,0.2383,0.2469,0.2319,0.2307,0.2389,0.2381,0.2375,0.2364,0.2462,0.2462,0.2461,0.2461,0,0.1213,0.1295,0.1366,0.1497,0.1542,0.16,0.1754,0.182,0.1956,0.2064,0.2115,0.2263,0.2341,0.2412,0.248,0.2416,0.2421,0.2394,0.2491,0.2482,0.2242,0.2234,0.2272,0.2268,0.2264,0.2262,0.2259,0,0.1178,0.121,0.1355,0.1408,0.1471,0.1578,0.1649,0.18,0.1873,0.2066,0.2106,0.2249,0.2321,0.2322,0.2396,0.2409,0.2381,0.2362,0.2282,0.224,0.2225,0.2222,0.2218,0.2254,0.2253,0.2252,0.2251,0,0.1107,0.117,0.1232,0.1342,0.1428,0.1513,0.163,0.1672,0.1834,0.1976,0.205,0.2101,0.2189,0.2234,0.2271,0.2272,0.2359,0.2327,0.2332,0.2257,0.2219,0.2206,0.2207,0.224,0.2241,0.2242,0.2243,0,0.1054,0.1077,0.1172,0.1258,0.1362,0.1422,0.1495,0.1583,0.1672,0.1877,0.1891,0.2036,0.216,0.2165,0.2197,0.2194,0.215,0.2065,0.2083,0.2097,0.201,0.1935,0.1864,0,0,0,0,0,0.0999,0.1015,0.1085,0.1173,0.1273,0.1336,0.147,0.1546,0.1696,0.1701,0.1793,0.1861,0.1918,0.2,0.1962,0.2119,0.2158,0.2064,0.2068,0.2176,0.2189,0.2103,0,0,0,0,0,0,0.0958,0.1011,0.1045,0.1088,0.113,0.1225,0.1303,0.1408,0.1424,0.158,0.1627,0.1743,0.1834,0.1916,0.1922,0.1945,0.1909,0.2157,0.2152,0.2168,0.218,0.2191,0.2107,0,0,0,0,0]},{"header":{"parameterUnit":"m.s-1","parameterCategory":2,"la1":30.2991,"la2":30.254,"lo1":-89.0895,"lo2":-89.0444,"dy":0.0017,"dx":0.0017,"nx":28,"ny":28,"refTime":"2024-03-19T03:00:00:Z","depth":"4","parameterNumber":3,"parameterNumberName":"V-component_of_CURRENTS"},"data":[0,0,0,0,0,0,0,0,0,0,0,0,0,0,0,0,0,0,0,0,0,0,0,0,0,0,0,0,0,0,0,0,0,0,0,0,0,0,0,0,0,0,0,0,0,0,0,0,0,0,0,0,0,0,0,0,0,0,0.0087,0.0086,0,0.0026,0.0025,0.0024,-0.0015,-0.0015,-0.0016,-0.0016,-0.0118,-0.012,-0.0123,0,0,0,0,0,0,0,0,0,0,0,0,0,0.0123,0.0123,0.0087,0.0086,0.0086,0.0026,0.0025,0.0024,-0.0015,-0.0015,-0.0016,-0.0016,-0.0117,-0.012,-0.0123,0,0,0,0,0,0,0,0,0,0,0,0,0,0.0088,0.0123,0.0087,0.006,0.0057,0.0026,0.0025,0.0024,-0.0015,-0.0015,-0.0016,-0.0016,-0.0116,-0.012,-0.0124,-0.0144,0,0,-0.0136,-0.0137,0,0,0,0,0,0,0,0,0.009,0.0087,0.0065,0.0062,0.0059,0.0014,0.0,-0.0034,-0.0015,0.0011,-0.0016,-0.0016,-0.0076,-0.0084,-0.0096,-0.0149,-0.0154,-0.0136,-0.0138,-0.014,-0.0141,0,0,0,0,0,0,0,0.0093,0.0089,0.0061,0.0064,0.006,0.0035,0.003,-0.0007,-0.0033,0.0008,0.0006,0.0001,-0.0079,-0.0092,-0.0099,-0.0155,-0.0136,-0.0139,-0.0142,-0.0143,-0.0218,-0.0217,0,0,0,0,0,0,0.0106,0.0092,0.0063,0.006,0.0076,0.0035,0.0029,0.0027,-0.0032,-0.004,0.0001,-0.0,-0.0086,-0.0094,-0.0103,-0.0116,-0.014,-0.0144,-0.0146,-0.0218,-0.0217,-0.0217,0,0,0,0,0,0,0.0107,0.0104,0.0066,0.0075,0.0069,0.0035,0.0033,0.0026,0.0011,-0.0036,-0.0046,-0.0006,-0.0086,-0.0097,-0.0133,-0.0121,-0.0145,-0.0149,-0.0218,-0.0218,-0.0217,-0.0153,0,0,0,0,0,0,0.0108,0.0105,0.0108,0.0076,0.0069,0.0052,0.0033,0.0025,0.001,0.0007,-0.0046,-0.0056,-0.0087,-0.0127,-0.0137,-0.0127,-0.0152,-0.0219,-0.0218,-0.0217,-0.0156,-0.015,-0.0146,0,0,0,0,0,0.011,0.0115,0.0108,0.0105,0.0074,0.0052,0.0046,0.002,0.001,0.0005,-0.003,-0.0054,-0.0129,-0.013,-0.0142,-0.0133,-0.0219,-0.0218,-0.0218,-0.0158,-0.0151,-0.0146,0,0,0,0,0,0,0.0128,0.011,0.0103,0.0101,0.0081,0.0046,0.0041,0.0022,-0.0009,-0.001,-0.0057,-0.007,-0.0094,-0.0124,-0.0124,-0.0151,-0.0175,-0.0177,-0.0126,-0.012,-0.0115,-0.0102,-0.0155,0,0,0,0,0,0.0136,0.0137,0.0112,0.0111,0.0105,0.0074,0.0062,0.0045,0.0015,0.0001,-0.0034,-0.007,-0.01,-0.0118,-0.015,-0.0171,-0.0202,-0.0171,-0.0166,-0.0162,-0.0158,-0.0197,-0.0195,-0.0214,-0.0214,-0.0214,0,0,0.0142,0.0133,0.0133,0.0116,0.01,0.0098,0.0066,0.0054,0.0051,-0.0006,-0.0021,-0.0057,-0.0102,-0.0121,-0.0134,-0.0145,-0.0171,-0.0161,-0.0156,-0.0155,-0.0196,-0.0194,-0.0192,-0.0214,-0.0214,-0.0214,0,0,0.016,0.015,0.016,0.0149,0.0132,0.0115,0.0114,0.0083,0.0069,0.0046,0.0011,-0.002,-0.0067,-0.0094,-0.0115,-0.0105,-0.0144,-0.011,-0.0075,-0.0112,-0.0111,-0.011,-0.0139,-0.0141,-0.0106,-0.0106,-0.0106,0,0.0169,0.0179,0.0157,0.0164,0.0164,0.0127,0.0139,0.0117,0.0079,0.0071,0.0051,-0.0013,-0.0054,-0.0076,-0.007,-0.0094,-0.0117,-0.0092,-0.0105,-0.0105,-0.0106,-0.0135,-0.0139,-0.0103,-0.0103,-0.0103,-0.0104,0,0.0193,0.0204,0.0208,0.0211,0.0205,0.0208,0.0184,0.0172,0.0151,0.0128,0.01,0.0042,0.0006,-0.0009,-0.0039,-0.0055,-0.0071,-0.0095,-0.0118,-0.01,-0.0132,-0.0137,-0.0098,-0.0099,-0.01,-0.0101,0,0,0.0205,0.0225,0.0226,0.0245,0.0234,0.0234,0.0233,0.0222,0.0225,0.018,0.0176,0.0118,0.0086,0.0061,0.0019,-0.0015,-0.0041,-0.0049,-0.0052,-0.0073,-0.0115,-0.0116,-0.0122,-0.0064,-0.0065,-0.0065,-0.0134,0,0.0232,0.0268,0.0266,0.03,0.0319,0.0298,0.0303,0.0287,0.0263,0.0247,0.0187,0.0165,0.0114,0.0099,0.0057,-0.0018,-0.0051,-0.002,-0.0134,-0.0137,-0.0137,-0.0127,-0.0067,-0.0137,-0.0139,-0.0139,-0.014,0,0.0254,0.028,0.0323,0.0359,0.0365,0.0378,0.0387,0.0384,0.0351,0.0332,0.0294,0.0247,0.019,0.0145,0.0028,0.0052,-0.0022,-0.0083,-0.0088,-0.0115,-0.0147,-0.0163,-0.0149,-0.0149,-0.0148,-0.0147,-0.0147,0,0.0278,0.0319,0.0362,0.0372,0.0401,0.0417,0.0425,0.041,0.0422,0.0385,0.0389,0.0307,0.0271,0.0167,0.0039,0.0034,-0.0091,-0.0117,-0.0187,-0.0188,-0.0195,-0.0196,-0.0195,-0.0195,-0.0195,-0.0195,-0.0195,0,0.0305,0.0338,0.038,0.0403,0.0455,0.0457,0.05,0.0489,0.0491,0.0511,0.0437,0.0428,0.0274,0.0184,0.0063,-0.0074,-0.0076,-0.0178,-0.0206,-0.0166,-0.0162,-0.0199,-0.0198,-0.0197,-0.0197,-0.0196,-0.0196,0,0.0319,0.0346,0.04,0.0449,0.047,0.0502,0.056,0.0588,0.058,0.0602,0.0598,0.0516,0.0394,0.0241,0.0065,-0.0035,-0.0171,-0.0219,-0.0154,-0.0177,-0.0249,-0.0244,-0.0301,-0.0302,-0.0303,-0.0303,-0.0303,0,0.0329,0.036,0.0434,0.0473,0.0499,0.0556,0.06,0.0624,0.066,0.0656,0.067,0.057,0.0493,0.0257,0.008,-0.0147,-0.0183,-0.025,-0.0261,-0.0239,-0.026,-0.0255,-0.0249,-0.0304,-0.0304,-0.0305,-0.0305,0,0.0347,0.0373,0.0417,0.05,0.056,0.0636,0.07,0.0739,0.0763,0.0765,0.0734,0.0609,0.047,0.0267,0.0091,-0.0075,-0.0206,-0.0257,-0.0257,-0.0267,-0.0243,-0.0262,-0.0257,-0.0307,-0.0306,-0.0306,-0.0306,0,0.0355,0.0386,0.0446,0.052,0.0601,0.0686,0.0725,0.0774,0.0811,0.0809,0.0794,0.0641,0.0548,0.0305,0.0142,-0.0022,-0.0071,-0.0125,-0.0133,-0.0133,-0.0072,-0.0015,-0.0028,0,0,0,0,0,0.036,0.0397,0.0464,0.0548,0.0632,0.0688,0.0779,0.0814,0.0848,0.0838,0.0821,0.0692,0.0448,0.0343,0.018,0.0112,-0.0112,-0.0087,-0.0181,-0.0317,-0.0315,-0.0272,0,0,0,0,0,0,0.0361,0.0419,0.0457,0.0561,0.0625,0.0726,0.079,0.0819,0.0821,0.0824,0.0702,0.0644,0.0409,0.0537,0.0172,0.0121,0.0039,-0.0199,-0.0203,-0.0318,-0.0316,-0.0314,-0.027,0,0,0,0,0]}]]